Location: Rehoboth Beach
(38.7438°N, 75.1341°W)
Time: 22:13:58
(UTC-04:00)

Hubble Space Telescope - Visible Passes

Search period start: 20 April 2018 00:00
Search period end: 30 April 2018 00:00
Orbit: 537 x 541 km, 28.5° (Epoch: 20 April)

Date Brightness Start Highest point End Pass type
(mag) Time Alt. Az. Time Alt. Az. Time Alt. Az.
26 Apr 2.8 21:19:08 10° SSW 21:20:37 14° S 21:20:37 14° S visible
27 Apr 2.5 21:08:29 10° SSW 21:11:11 17° S 21:11:13 17° S visible
28 Apr 2.4 20:57:55 10° SW 21:00:46 18° S 21:01:43 17° SSE visible
29 Apr 2.4 20:47:24 10° SW 20:50:21 19° S 20:52:07 15° SE visible
